This demonstration page uses our WeatherBlox Daily Observations layout. Learn more.

Left ArrowRight Arrow

39.01783, -85.05884

Hourly Observations for March 28, 2015

Temp ( °F °C ) Dew Point ( °F °C ) Humidity (%) Winds ( mph kmh ) Pressure ( in mb ) Visibility ( mi km ) Precip ( " mm )
12:52 am 00:52 Cloudy 27 -2.8 11 -11.7 51 51 NW 14 22 30.13 1020 10 16 0.00 0.00
1:52 am 01:52 Partly Cloudy 25 -3.9 12 -11.1 58 58 N 13 20 30.13 1020 10 16 0.00 0.00
2:52 am 02:52 Clear 24 -4.4 12 -11.1 60 60 N 13 20 30.14 1021 10 16 0.00 0.00
3:52 am 03:52 Clear 22 -5.6 13 -10.6 68 68 N 13 20 30.14 1021 10 16 0.00 0.00
4:52 am 04:52 Clear 21 -6.1 13 -10.6 71 71 NNW 10 17 30.15 1021 10 16 0.00 0.00
5:52 am 05:52 Clear 20 -6.7 13 -10.6 74 74 NNW 7 11 30.17 1022 10 16 0.00 0.00
6:52 am 06:52 Clear 20 -6.7 14 -10 78 78 N 8 13 30.20 1023 10 16 0.00 0.00
7:52 am 07:52 Sunny 20 -6.7 14 -10 78 78 N 7 11 30.22 1023 10 16 0.00 0.00
8:52 am 08:52 Sunny 22 -5.6 15 -9.4 75 75 NNE 8 13 30.25 1025 10 16 0.00 0.00
9:52 am 09:52 Partly Cloudy 26 -3.3 16 -8.9 66 66 VRB 6 9 30.27 1025 10 16 0.00 0.00
10:52 am 10:52 Partly Cloudy 29 -1.7 14 -10 54 54 NNE 10 17 30.29 1026 10 16 0.00 0.00
11:52 am 11:52 Partly Cloudy 30 -1.1 13 -10.6 49 49 ENE 9 15 30.29 1026 10 16 0.00 0.00
12:52 pm 12:52 Partly Cloudy 32 0 12 -11.1 43 43 N 10 17 30.30 1026 10 16 0.00 0.00
1:52 pm 13:52 Mostly Sunny 34 1.1 14 -10 44 44 N 14 22 30.30 1026 10 16 0.00 0.00
2:52 pm 14:52 Mostly Sunny 34 1.1 11 -11.7 38 38 Calm 30.29 1026 10 16 0.00 0.00
3:52 pm 15:52 Mostly Sunny 36 2.2 12 -11.1 37 37 WNW 8 13 30.28 1026 10 16 0.00 0.00
4:52 pm 16:52 Sunny 36 2.2 12 -11.1 37 37 NW 6 9 30.28 1026 10 16 0.00 0.00
5:52 pm 17:52 Sunny 37 2.8 11 -11.7 34 34 N 10 17 30.29 1026 10 16 0.00 0.00
6:52 pm 18:52 Sunny 36 2.2 9 -12.8 32 32 N 9 15 30.31 1026 10 16 0.00 0.00
7:52 pm 19:52 Sunny 34 1.1 9 -12.8 35 35 N 7 11 30.31 1027 10 16 0.00 0.00
8:52 pm 20:52 Clear 33 0.6 11 -11.7 40 40 NNE 6 9 30.32 1027 10 16 0.00 0.00
9:52 pm 21:52 Clear 32 0 11 -11.7 41 41 NE 6 9 30.34 1028 10 16 0.00 0.00
10:52 pm 22:52 Clear 31 -0.6 11 -11.7 43 43 NE 6 9 30.36 1028 10 16 0.00 0.00
11:52 pm 23:52 Clear 30 -1.1 13 -10.6 49 49 ENE 6 9 30.37 1029 10 16 0.00 0.00

Powered by AerisWeather